Location: Le Rocchette
(44.3500°N, 7.8333°E)
Time: 12:32:41
(UTC+00:00)

Cosmos 1328 Rocket - Pass Details

Date: 17 November 2019
Orbit: 600 x 628 km, 82.5° (Epoch: 06 December)

Event Time Altitude Azimuth Distance (km) Brightness Sun altitude
Rises 04:24:33 0° 356° (N) 2,877 6.9 -21.7°
Reaches altitude 10° 04:26:51 10° 2° (N) 1,964 6.1 -21.3°
Maximum altitude 04:31:04 48° 78° (ENE) 789 4.4 -20.6°
Drops below altitude 10° 04:35:13 10° 153° (SSE) 1,940 6.5 -19.8°
Sets 04:37:28 0° 159° (SSE) 2,836 7.3 -19.4°
